,,,PA_Meas_PMT16A,,PR_Meas_QMR101_102,,RH_Meas_QMH101,,SR_Meas_QMS101,,TA_Meas_QMH101,,GenWind,,GenWind,
date,time,status,PA,status,PR,status,RH,status,SR,status,TA,status,DirAvg,status,SpdAvg,
2011-04-28, 00:00:05,VALID,1003.47,VALID,0,INVALID,163.685,VALID,0.100563,VALID,24.8095,VALID,150,VALID,0.261719,
2011-04-28, 00:01:05,VALID,1003.47,VALID,0,INVALID,163.678,VALID,0.100563,VALID,24.8308,VALID,150,VALID,0.169141,
2011-04-28, 00:02:05,VALID,1003.46,VALID,0,INVALID,163.67,VALID,0,VALID,24.8095,VALID,150,VALID,0,
2011-04-28, 00:03:05,VALID,1003.43,VALID,0,INVALID,163.662,VALID,0,VALID,24.8308,VALID,150,VALID,0.221875,
2011-04-28, 00:04:05,VALID,1003.38,VALID,0,INVALID,163.678,VALID,0.100563,VALID,24.8113,VALID,150,VALID,0.316016,
2011-04-28, 00:05:05,VALID,1003.33,VALID,0,INVALID,163.701,VALID,0,VALID,24.7919,VALID,150,VALID,0.264453,
2011-04-28, 00:06:05,VALID,1003.32,VALID,0,INVALID,163.67,VALID,0.100563,VALID,24.8113,VALID,150,VALID,0.235547,
2011-04-28, 00:07:05,VALID,1003.3,VALID,0,INVALID,163.701,VALID,0,VALID,24.7919,VALID,150,VALID,0.383594,
2011-04-28, 00:08:05,VALID,1003.29,VALID,0,INVALID,163.693,VALID,0,VALID,24.8113,VALID,115,VALID,0.498047,
2011-04-28, 00:09:05,VALID,1003.32,VALID,0,INVALID,163.701,VALID,0.100563,VALID,24.7919,VALID,33,VALID,0.774219,
2011-04-28, 00:10:05,VALID,1003.35,VALID,0,INVALID,163.693,VALID,0.100563,VALID,24.7919,VALID,33,VALID,0.687891,
2011-04-28, 00:11:05,VALID,1003.33,VALID,0,INVALID,163.685,VALID,0.100563,VALID,24.7937,VALID,33,VALID,0.498437,
2011-04-28, 00:12:05,VALID,1003.37,VALID,0,INVALID,163.693,VALID,0,VALID,24.8113,VALID,33,VALID,0.454688,
2011-04-28, 00:13:05,VALID,1003.38,VALID,0,INVALID,163.678,VALID,0.100563,VALID,24.8308,VALID,33,VALID,0.230859,
2011-04-28, 00:14:05,VALID,1003.35,VALID,0,INVALID,163.678,VALID,0,VALID,24.8308,VALID,33,VALID,0,
2011-04-28, 00:15:05,VALID,1003.32,VALID,0,INVALID,163.701,VALID,0,VALID,24.8308,VALID,33,VALID,0,
2011-04-28, 00:16:05,VALID,1003.32,VALID,0,INVALID,163.693,VALID,0,VALID,24.8503,VALID,33,VALID,0.400391,
2011-04-28, 00:17:05,VALID,1003.33,VALID,0,INVALID,163.701,VALID,0,VALID,24.8911,VALID,33,VALID,0.421094,
2011-04-28, 00:18:05,VALID,1003.33,VALID,0,INVALID,163.678,VALID,0,VALID,24.9087,VALID,33,VALID,0.2,
2011-04-28, 00:19:05,VALID,1003.3,VALID,0,INVALID,163.662,VALID,0,VALID,24.9106,VALID,33,VALID,0.185937,
2011-04-28, 00:20:05,VALID,1003.27,VALID,0,INVALID,163.685,VALID,0,VALID,24.9087,VALID,33,VALID,0.504297,
2011-04-28, 00:21:05,VALID,1003.24,VALID,0,INVALID,163.662,VALID,0.100563,VALID,24.9087,VALID,22,VALID,0.835547,
2011-04-28, 00:22:05,VALID,1003.19,VALID,0,INVALID,163.678,VALID,0,VALID,24.8873,VALID,25,VALID,0.646484,
2011-04-28, 00:23:05,VALID,1003.2,VALID,0,INVALID,163.662,VALID,0.100563,VALID,24.9087,VALID,25,VALID,0.550391,
2011-04-28, 00:24:05,VALID,1003.14,VALID,0,INVALID,163.655,VALID,0.100563,VALID,24.9282,VALID,25,VALID,0.551562,
2011-04-28, 00:25:05,VALID,1003.13,VALID,0,INVALID,163.678,VALID,0,VALID,24.9282,VALID,30,VALID,0.326953,
2011-04-28, 00:26:05,VALID,1003.11,VALID,0.5,INVALID,163.678,VALID,0.100563,VALID,24.9282,VALID,30,VALID,0.321484,
2011-04-28, 00:27:05,VALID,1003.12,VALID,0,INVALID,163.678,VALID,0,VALID,24.969,VALID,36,VALID,0.186328,
2011-04-28, 00:28:05,VALID,1003.1,VALID,0,INVALID,163.662,VALID,0,VALID,24.9476,VALID,77,VALID,0.428516,
2011-04-28, 00:29:05,VALID,1003.07,VALID,0,INVALID,163.67,VALID,0.100563,VALID,24.9671,VALID,75,VALID,0.630859,
2011-04-28, 00:30:05,VALID,1003.07,VALID,0,INVALID,163.647,VALID,0,VALID,24.9671,VALID,75,VALID,0.302734,
2011-04-28, 00:31:05,VALID,1003.03,VALID,0,INVALID,163.639,VALID,0,VALID,24.9671,VALID,22,VALID,0.717578,
2011-04-28, 00:32:05,VALID,1002.98,VALID,0,INVALID,163.662,VALID,0.100563,VALID,24.9866,VALID,27,VALID,0.688281,
2011-04-28, 00:33:05,VALID,1002.95,VALID,0,INVALID,163.685,VALID,0.100563,VALID,25.0079,VALID,81,VALID,0.769922,
2011-04-28, 00:34:05,VALID,1002.91,VALID,0,INVALID,163.67,VALID,0.100563,VALID,24.9866,VALID,72,VALID,0.221875,
2011-04-28, 00:35:05,VALID,1002.84,VALID,0,INVALID,163.655,VALID,0,VALID,25.0079,VALID,28,VALID,1.25508,
2011-04-28, 00:36:05,VALID,1002.79,VALID,0,INVALID,163.655,VALID,0,VALID,25.0041,VALID,87,VALID,0.88125,
2011-04-28, 00:37:05,VALID,1002.77,VALID,0,INVALID,163.662,VALID,0.100563,VALID,25.0255,VALID,32,VALID,0.537891,
2011-04-28, 00:38:05,VALID,1002.72,VALID,0,INVALID,163.67,VALID,0.100563,VALID,25.0469,VALID,44,VALID,0.639063,
2011-04-28, 00:39:05,VALID,1002.68,VALID,0,INVALID,163.647,VALID,0,VALID,25.0255,VALID,63,VALID,0.291016,
2011-04-28, 00:40:05,VALID,1002.68,VALID,0.5,INVALID,163.67,VALID,0,VALID,25.0255,VALID,44,VALID,0.382813,
2011-04-28, 00:41:05,VALID,1002.69,VALID,0,INVALID,163.655,VALID,0,VALID,25.006,VALID,88,VALID,0.527734,
2011-04-28, 00:42:05,VALID,1002.71,VALID,0,INVALID,163.647,VALID,0,VALID,25.006,VALID,80,VALID,0.809766,
2011-04-28, 00:43:05,VALID,1002.71,VALID,0,INVALID,163.685,VALID,0,VALID,25.006,VALID,34,VALID,0.489062,
2011-04-28, 00:44:05,VALID,1002.75,VALID,0,INVALID,163.647,VALID,0,VALID,24.9671,VALID,89,VALID,0.660937,
2011-04-28, 00:45:05,VALID,1002.78,VALID,0.5,INVALID,163.662,VALID,0.100563,VALID,24.9885,VALID,63,VALID,0.579687,
2011-04-28, 00:46:05,VALID,1002.82,VALID,0,INVALID,163.662,VALID,0.100563,VALID,24.9476,VALID,95,VALID,0.532812,
2011-04-28, 00:47:05,VALID,1002.81,VALID,0,INVALID,163.685,VALID,0,VALID,24.9282,VALID,73,VALID,0.364062,
2011-04-28, 00:48:05,VALID,1002.8,VALID,0,INVALID,163.647,VALID,0,VALID,24.9282,VALID,85,VALID,0.761328,
2011-04-28, 00:49:05,VALID,1002.82,VALID,0,INVALID,163.678,VALID,0.100563,VALID,24.9476,VALID,76,VALID,0.377344,
2011-04-28, 00:50:05,VALID,1002.8,VALID,0,INVALID,163.693,VALID,0.100563,VALID,24.8873,VALID,76,VALID,0.722656,
2011-04-28, 00:51:05,VALID,1002.81,VALID,0,INVALID,163.67,VALID,0,VALID,24.9087,VALID,77,VALID,1.31641,
2011-04-28, 00:52:05,VALID,1002.81,VALID,0,INVALID,163.685,VALID,0,VALID,24.93,VALID,78,VALID,0.834766,
2011-04-28, 00:53:05,VALID,1002.79,VALID,0,INVALID,163.701,VALID,0,VALID,24.8892,VALID,101,VALID,1.38125,
2011-04-28, 00:54:05,VALID,1002.81,VALID,0.5,INVALID,163.685,VALID,0,VALID,24.8697,VALID,87,VALID,0.674609,
2011-04-28, 00:55:05,VALID,1002.82,VALID,0,INVALID,163.685,VALID,0,VALID,24.8697,VALID,114,VALID,0.809766,
2011-04-28, 00:56:05,VALID,1002.82,VALID,0,INVALID,163.685,VALID,0,VALID,24.8522,VALID,99,VALID,0.933984,
2011-04-28, 00:57:05,VALID,1002.84,VALID,0.5,INVALID,163.708,VALID,0,VALID,24.8132,VALID,93,VALID,1.60938,
2011-04-28, 00:58:05,VALID,1002.87,VALID,0.5,INVALID,163.693,VALID,0,VALID,24.7529,VALID,85,VALID,1.07422,
2011-04-28, 00:59:05,VALID,1002.91,VALID,0.5,INVALID,163.693,VALID,0,VALID,24.7353,VALID,45,VALID,1.32852,
2011-04-28, 01:00:05,VALID,1002.89,VALID,1,INVALID,163.685,VALID,0,VALID,24.7159,VALID,60,VALID,1.20078,
2011-04-28, 01:01:05,VALID,1002.93,VALID,1,INVALID,163.708,VALID,0,VALID,24.675,VALID,63,VALID,0.803516,
2011-04-28, 01:02:05,VALID,1002.87,VALID,1.5,INVALID,163.678,VALID,0.100563,VALID,24.675,VALID,27,VALID,1.54453,
2011-04-28, 01:03:05,VALID,1002.86,VALID,1,INVALID,163.678,VALID,0,VALID,24.6556,VALID,20,VALID,2.13242,
2011-04-28, 01:04:05,VALID,1002.82,VALID,0.5,INVALID,163.701,VALID,0.100563,VALID,24.6556,VALID,13,VALID,2.10039,
2011-04-28, 01:05:05,VALID,1002.78,VALID,0.5,INVALID,163.708,VALID,0,VALID,24.675,VALID,13,VALID,2.13828,
2011-04-28, 01:06:05,VALID,1002.75,VALID,0.5,INVALID,163.723,VALID,0,VALID,24.675,VALID,354,VALID,1.2207,
2011-04-28, 01:07:05,VALID,1002.68,VALID,0.5,INVALID,163.708,VALID,0,VALID,24.6945,VALID,15,VALID,2.53437,
2011-04-28, 01:08:05,VALID,1002.7,VALID,0.5,INVALID,163.662,VALID,0,VALID,24.6945,VALID,339,VALID,0.766797,
2011-04-28, 01:09:05,VALID,1002.74,VALID,0,INVALID,163.67,VALID,0,VALID,24.6945,VALID,286,VALID,1.42852,
2011-04-28, 01:10:05,VALID,1002.73,VALID,0,INVALID,163.693,VALID,0,VALID,24.7548,VALID,289,VALID,0.757422,
2011-04-28, 01:11:05,VALID,1002.71,VALID,0.5,INVALID,163.685,VALID,0,VALID,24.714,VALID,249,VALID,1.48438,
2011-04-28, 01:12:05,VALID,1002.71,VALID,0,INVALID,163.685,VALID,0.100563,VALID,24.714,VALID,288,VALID,0.975391,
2011-04-28, 01:13:05,VALID,1002.7,VALID,0,INVALID,163.693,VALID,0,VALID,24.6342,VALID,297,VALID,2.06445,
2011-04-28, 01:14:05,VALID,1002.68,VALID,0.5,INVALID,163.701,VALID,0,VALID,24.6166,VALID,295,VALID,2.76172,
2011-04-28, 01:15:05,VALID,1002.63,VALID,0,INVALID,163.701,VALID,0,VALID,24.5388,VALID,301,VALID,1.68984,
2011-04-28, 01:16:05,VALID,1002.57,VALID,0,INVALID,163.693,VALID,0,VALID,24.4998,VALID,18,VALID,0.505859,
2011-04-28, 01:17:05,VALID,1002.49,VALID,0,INVALID,163.731,VALID,0,VALID,24.4628,VALID,337,VALID,0.648438,
2011-04-28, 01:18:04,VALID,1002.42,VALID,0.5,INVALID,163.716,VALID,0,VALID,24.383,VALID,318,VALID,0.551562,
2011-04-28, 01:19:04,VALID,1002.36,VALID,0,INVALID,163.708,VALID,0,VALID,24.3441,VALID,294,VALID,0.616797,
2011-04-28, 01:20:04,VALID,1002.32,VALID,0,INVALID,163.708,VALID,0,VALID,24.3246,VALID,340,VALID,0.413281,
2011-04-28, 01:21:04,VALID,1002.26,VALID,0,INVALID,163.716,VALID,0,VALID,24.3265,VALID,306,VALID,0.430469,
2011-04-28, 01:22:04,VALID,1002.22,VALID,0,INVALID,163.716,VALID,0,VALID,24.2875,VALID,301,VALID,0.494531,
2011-04-28, 01:23:04,VALID,1002.21,VALID,0.5,INVALID,163.716,VALID,0,VALID,24.2486,VALID,292,VALID,1.38984,
2011-04-28, 01:24:04,VALID,1002.2,VALID,0,INVALID,163.723,VALID,0,VALID,24.1707,VALID,302,VALID,1.54688,
2011-04-28, 01:25:04,VALID,1002.14,VALID,0,INVALID,163.746,VALID,0,VALID,24.13,VALID,309,VALID,0.830078,
2011-04-28, 01:26:04,VALID,1002.1,VALID,0.5,INVALID,163.723,VALID,0,VALID,24.1513,VALID,339,VALID,0.582812,
2011-04-28, 01:27:04,VALID,1002.06,VALID,0,INVALID,163.739,VALID,0,VALID,24.1707,VALID,319,VALID,0.45625,
2011-04-28, 01:28:04,VALID,1002.03,VALID,0,INVALID,163.731,VALID,0,VALID,24.1513,VALID,357,VALID,0.282422,
2011-04-28, 01:29:04,VALID,1001.98,VALID,0.5,INVALID,163.731,VALID,0,VALID,24.13,VALID,286,VALID,1.30117,
2011-04-28, 01:30:04,VALID,1001.99,VALID,0,INVALID,163.708,VALID,0,VALID,24.1318,VALID,305,VALID,0.294141,
2011-04-28, 01:31:04,VALID,1002.05,VALID,0,INVALID,163.731,VALID,0,VALID,24.13,VALID,273,VALID,0.0761719,
2011-04-28, 01:32:04,VALID,1002.04,VALID,0,INVALID,163.754,VALID,0,VALID,24.1707,VALID,281,VALID,1.17383,
2011-04-28, 01:33:04,VALID,1002.09,VALID,0,INVALID,163.731,VALID,0,VALID,24.1513,VALID,299,VALID,1.33438,
2011-04-28, 01:34:04,VALID,1002.11,VALID,0,INVALID,163.723,VALID,0,VALID,24.1318,VALID,301,VALID,0.655469,
2011-04-28, 01:35:04,VALID,1002.13,VALID,0,INVALID,163.716,VALID,0,VALID,24.1123,VALID,306,VALID,1.12188,
2011-04-28, 01:36:04,VALID,1002.16,VALID,0,INVALID,163.746,VALID,0,VALID,24.091,VALID,337,VALID,0.833984,
2011-04-28, 01:37:04,VALID,1002.17,VALID,0,INVALID,163.701,VALID,0,VALID,24.0734,VALID,287,VALID,1.52617,
2011-04-28, 01:38:04,VALID,1002.22,VALID,0,INVALID,163.739,VALID,0,VALID,24.0521,VALID,277,VALID,0.398047,
2011-04-28, 01:39:04,VALID,1002.21,VALID,0,INVALID,163.739,VALID,0,VALID,24.0326,VALID,346,VALID,0.065625,
2011-04-28, 01:40:04,VALID,1002.23,VALID,0,INVALID,163.754,VALID,0,VALID,24.0132,VALID,291,VALID,0.838281,
2011-04-28, 01:41:04,VALID,1002.23,VALID,0,INVALID,163.739,VALID,0,VALID,23.9919,VALID,280,VALID,0.277734,
2011-04-28, 01:42:04,VALID,1002.25,VALID,0,INVALID,163.754,VALID,0,VALID,24.0132,VALID,339,VALID,0.555469,
2011-04-28, 01:43:04,VALID,1002.25,VALID,0,INVALID,163.762,VALID,0,VALID,24.0132,VALID,303,VALID,0.660937,
2011-04-28, 01:44:04,VALID,1002.27,VALID,0,INVALID,163.746,VALID,0,VALID,23.9742,VALID,304,VALID,0.21875,
2011-04-28, 01:45:04,VALID,1002.31,VALID,0,INVALID,163.716,VALID,0,VALID,23.9742,VALID,346,VALID,0.687891,
2011-04-28, 01:46:04,VALID,1002.35,VALID,0,INVALID,163.739,VALID,0,VALID,23.9353,VALID,7,VALID,0.432813,
2011-04-28, 01:47:04,VALID,1002.39,VALID,0,INVALID,163.754,VALID,0,VALID,23.9159,VALID,354,VALID,0.751953,
2011-04-28, 01:48:04,VALID,1002.42,VALID,0,INVALID,163.723,VALID,0,VALID,23.8964,VALID,348,VALID,1.13672,
2011-04-28, 01:49:04,VALID,1002.45,VALID,0.5,INVALID,163.746,VALID,0,VALID,23.8575,VALID,359,VALID,0.717969,
2011-04-28, 01:50:04,VALID,1002.46,VALID,0,INVALID,163.723,VALID,0,VALID,23.838,VALID,350,VALID,0.657812,
2011-04-28, 01:51:04,VALID,1002.49,VALID,0,INVALID,163.769,VALID,0,VALID,23.8185,VALID,350,VALID,1.03164,
2011-04-28, 01:52:04,VALID,1002.49,VALID,0,INVALID,163.746,VALID,0,VALID,23.8203,VALID,317,VALID,0.46875,
2011-04-28, 01:53:04,VALID,1002.51,VALID,0,INVALID,163.769,VALID,0,VALID,23.8203,VALID,317,VALID,0.253906,
2011-04-28, 01:54:04,VALID,1002.49,VALID,0,INVALID,163.746,VALID,0,VALID,23.8203,VALID,317,VALID,0.355859,
2011-04-28, 01:55:04,VALID,1002.5,VALID,0,INVALID,163.762,VALID,0,VALID,23.7407,VALID,355,VALID,0.438281,
2011-04-28, 01:56:04,VALID,1002.47,VALID,0,INVALID,163.777,VALID,0,VALID,23.7407,VALID,39,VALID,0.191406,
2011-04-28, 01:57:04,VALID,1002.47,VALID,0,INVALID,163.762,VALID,0,VALID,23.7407,VALID,39,VALID,0.208594,
2011-04-28, 01:58:04,VALID,1002.42,VALID,0,INVALID,163.784,VALID,0,VALID,23.7619,VALID,39,VALID,0.166016,
2011-04-28, 01:59:04,VALID,1002.43,VALID,0,INVALID,163.792,VALID,0,VALID,23.723,VALID,32,VALID,0.677344,
2011-04-28, 02:00:04,VALID,1002.39,VALID,0,INVALID,163.762,VALID,0,VALID,23.7035,VALID,31,VALID,0.462891,
2011-04-28, 02:01:04,VALID,1002.39,VALID,0,INVALID,163.754,VALID,0,VALID,23.6646,VALID,29,VALID,0.319141,
2011-04-28, 02:02:04,VALID,1002.39,VALID,0,INVALID,163.739,VALID,0,VALID,23.6628,VALID,29,VALID,0,
2011-04-28, 02:03:04,VALID,1002.38,VALID,0,INVALID,163.777,VALID,0.100563,VALID,23.6434,VALID,349,VALID,0.869531,
2011-04-28, 02:04:04,VALID,1002.38,VALID,0,INVALID,163.777,VALID,0,VALID,23.6044,VALID,352,VALID,0.665625,
2011-04-28, 02:05:04,VALID,1002.39,VALID,0,INVALID,163.777,VALID,0,VALID,23.585,VALID,352,VALID,0.521094,
2011-04-28, 02:06:04,VALID,1002.34,VALID,0,INVALID,163.762,VALID,0,VALID,23.585,VALID,353,VALID,0.434375,
2011-04-28, 02:07:04,VALID,1002.34,VALID,0,INVALID,163.762,VALID,0,VALID,23.5868,VALID,353,VALID,0.510938,
2011-04-28, 02:08:04,VALID,1002.35,VALID,0,INVALID,163.754,VALID,0,VALID,23.585,VALID,353,VALID,0.239453,
2011-04-28, 02:09:04,VALID,1002.33,VALID,0,INVALID,163.784,VALID,0,VALID,23.6044,VALID,357,VALID,0.211328,
2011-04-28, 02:10:04,VALID,1002.34,VALID,0,INVALID,163.769,VALID,0,VALID,23.585,VALID,357,VALID,0.0585938,
2011-04-28, 02:11:04,VALID,1002.32,VALID,0,INVALID,163.769,VALID,0,VALID,23.585,VALID,357,VALID,0.460547,
2011-04-28, 02:12:04,VALID,1002.33,VALID,0,INVALID,163.777,VALID,0,VALID,23.5655,VALID,356,VALID,0.275391,
2011-04-28, 02:13:04,VALID,1002.31,VALID,0,INVALID,163.807,VALID,0,VALID,23.5868,VALID,289,VALID,0.808203,
2011-04-28, 02:14:04,VALID,1002.3,VALID,0,INVALID,163.754,VALID,0,VALID,23.5655,VALID,292,VALID,0.192578,
2011-04-28, 02:15:04,VALID,1002.3,VALID,0,INVALID,163.777,VALID,0,VALID,23.5655,VALID,262,VALID,0.270312,
2011-04-28, 02:16:04,VALID,1002.28,VALID,0,INVALID,163.777,VALID,0,VALID,23.585,VALID,262,VALID,0.176563,
2011-04-28, 02:17:04,VALID,1002.3,VALID,0,INVALID,163.777,VALID,0,VALID,23.6257,VALID,278,VALID,0.501953,
2011-04-28, 02:18:04,VALID,1002.29,VALID,0,INVALID,163.777,VALID,0,VALID,23.6257,VALID,297,VALID,0.258594,
2011-04-28, 02:19:04,VALID,1002.3,VALID,0,INVALID,163.777,VALID,0,VALID,23.6257,VALID,297,VALID,0.437109,
2011-04-28, 02:20:04,VALID,1002.31,VALID,0,INVALID,163.769,VALID,0,VALID,23.6062,VALID,297,VALID,0.225391,
2011-04-28, 02:21:04,VALID,1002.34,VALID,0,INVALID,163.784,VALID,0.100563,VALID,23.6044,VALID,298,VALID,0.227734,
2011-04-28, 02:22:04,VALID,1002.34,VALID,0,INVALID,163.784,VALID,0,VALID,23.6044,VALID,298,VALID,0.00351562,
2011-04-28, 02:23:04,VALID,1002.35,VALID,0,INVALID,163.762,VALID,0,VALID,23.6044,VALID,299,VALID,0.0878906,
2011-04-28, 02:24:04,VALID,1002.36,VALID,0,INVALID,163.762,VALID,0,VALID,23.6044,VALID,301,VALID,0,
2011-04-28, 02:25:04,VALID,1002.32,VALID,0,INVALID,163.792,VALID,0,VALID,23.6044,VALID,307,VALID,0.425,
2011-04-28, 02:26:04,VALID,1002.34,VALID,0,INVALID,163.769,VALID,0,VALID,23.5655,VALID,339,VALID,0.429688,
2011-04-28, 02:27:04,VALID,1002.34,VALID,0,INVALID,163.762,VALID,0.100563,VALID,23.546,VALID,351,VALID,0.292969,
2011-04-28, 02:28:04,VALID,1002.35,VALID,0,INVALID,163.769,VALID,0,VALID,23.546,VALID,351,VALID,0,
2011-04-28, 02:29:04,VALID,1002.3,VALID,0,INVALID,163.792,VALID,0,VALID,23.5443,VALID,351,VALID,0.000390625,
2011-04-28, 02:30:04,VALID,1002.29,VALID,0,INVALID,163.784,VALID,0,VALID,23.5655,VALID,351,VALID,0,
2011-04-28, 02:31:04,VALID,1002.3,VALID,0,INVALID,163.792,VALID,0,VALID,23.585,VALID,351,VALID,0.096875,
2011-04-28, 02:32:04,VALID,1002.27,VALID,0,INVALID,163.777,VALID,0.100563,VALID,23.5832,VALID,350,VALID,0.412109,
2011-04-28, 02:33:04,VALID,1002.25,VALID,0,INVALID,163.762,VALID,0,VALID,23.585,VALID,356,VALID,0.482422,
2011-04-28, 02:34:04,VALID,1002.24,VALID,0,INVALID,163.769,VALID,0.100563,VALID,23.546,VALID,353,VALID,0.422656,
2011-04-28, 02:35:04,VALID,1002.22,VALID,0,INVALID,163.746,VALID,0,VALID,23.5248,VALID,352,VALID,0,
2011-04-28, 02:36:04,VALID,1002.19,VALID,0,INVALID,163.746,VALID,0,VALID,23.546,VALID,352,VALID,0.0933594,
2011-04-28, 02:37:04,VALID,1002.15,VALID,0,INVALID,163.754,VALID,0,VALID,23.5443,VALID,352,VALID,0.00429688,
2011-04-28, 02:38:04,VALID,1002.11,VALID,0,INVALID,163.731,VALID,0.100563,VALID,23.546,VALID,352,VALID,0.379687,
2011-04-28, 02:39:04,VALID,1002.1,VALID,0,INVALID,163.777,VALID,0.100563,VALID,23.5248,VALID,352,VALID,0.314844,
2011-04-28, 02:40:04,VALID,1002.08,VALID,0,INVALID,163.769,VALID,0,VALID,23.5266,VALID,352,VALID,0.336719,
2011-04-28, 02:41:04,VALID,1002.07,VALID,0,INVALID,163.777,VALID,0,VALID,23.5673,VALID,352,VALID,0,
2011-04-28, 02:42:04,VALID,1002.05,VALID,0,INVALID,163.754,VALID,0,VALID,23.5266,VALID,352,VALID,0.05625,
2011-04-28, 02:43:04,VALID,1002.04,VALID,0,INVALID,163.792,VALID,0.100563,VALID,23.5248,VALID,352,VALID,0.235938,
2011-04-28, 02:44:04,VALID,1002.04,VALID,0,INVALID,163.769,VALID,0,VALID,23.546,VALID,352,VALID,0.204688,
2011-04-28, 02:45:04,VALID,1002.02,VALID,0,INVALID,163.792,VALID,0,VALID,23.5266,VALID,352,VALID,0,
2011-04-28, 02:46:04,VALID,1002.02,VALID,0,INVALID,163.777,VALID,0.100563,VALID,23.4877,VALID,352,VALID,0,
2011-04-28, 02:47:04,VALID,1002,VALID,0,INVALID,163.784,VALID,0.100563,VALID,23.4682,VALID,352,VALID,0,
2011-04-28, 02:48:04,VALID,1001.99,VALID,0,INVALID,163.777,VALID,0,VALID,23.47,VALID,352,VALID,0,
2011-04-28, 02:49:04,VALID,1001.97,VALID,0,INVALID,163.762,VALID,0.100563,VALID,23.4487,VALID,352,VALID,0,
2011-04-28, 02:50:04,VALID,1001.94,VALID,0,INVALID,163.762,VALID,0,VALID,23.408,VALID,352,VALID,0,
2011-04-28, 02:51:04,VALID,1001.92,VALID,0,INVALID,163.8,VALID,0.100563,VALID,23.4487,VALID,352,VALID,0,
2011-04-28, 02:52:04,VALID,1001.89,VALID,0,INVALID,163.769,VALID,0.100563,VALID,23.4487,VALID,352,VALID,0,
2011-04-28, 02:53:04,VALID,1001.88,VALID,0,INVALID,163.777,VALID,0.100563,VALID,23.4682,VALID,352,VALID,0,
2011-04-28, 02:54:04,VALID,1001.89,VALID,0,INVALID,163.792,VALID,0,VALID,23.4664,VALID,352,VALID,0,
2011-04-28, 02:55:04,VALID,1001.91,VALID,0,INVALID,163.792,VALID,0,VALID,23.4877,VALID,352,VALID,0,
2011-04-28, 02:56:04,VALID,1001.89,VALID,0,INVALID,163.784,VALID,0,VALID,23.4877,VALID,352,VALID,0,
2011-04-28, 02:57:04,VALID,1001.9,VALID,0,INVALID,163.784,VALID,0.100563,VALID,23.4877,VALID,354,VALID,0.102734,
2011-04-28, 02:58:04,VALID,1001.86,VALID,0,INVALID,163.784,VALID,0.100563,VALID,23.4682,VALID,2,VALID,0.619531,
2011-04-28, 02:59:04,VALID,1001.9,VALID,0,INVALID,163.807,VALID,0.100563,VALID,23.408,VALID,4,VALID,0.264062,
2011-04-28, 03:00:04,VALID,1001.88,VALID,0,INVALID,163.777,VALID,0.100563,VALID,23.408,VALID,4,VALID,0,
2011-04-28, 03:01:04,VALID,1001.9,VALID,0,INVALID,163.815,VALID,0,VALID,23.3886,VALID,4,VALID,0,
2011-04-28, 03:02:04,VALID,1001.85,VALID,0,INVALID,163.769,VALID,0,VALID,23.3904,VALID,4,VALID,0.336719,
2011-04-28, 03:03:04,VALID,1001.89,VALID,0,INVALID,163.8,VALID,0.100563,VALID,23.3904,VALID,4,VALID,0,
2011-04-28, 03:04:04,VALID,1001.89,VALID,0,INVALID,163.769,VALID,0.100563,VALID,23.3904,VALID,4,VALID,0.00429688,
2011-04-28, 03:05:04,VALID,1001.88,VALID,0,INVALID,163.792,VALID,0,VALID,23.332,VALID,4,VALID,0.210938,
2011-04-28, 03:06:04,VALID,1001.89,VALID,0,INVALID,163.815,VALID,0,VALID,23.2718,VALID,4,VALID,0.525391,
2011-04-28, 03:07:04,VALID,1001.86,VALID,0,INVALID,163.792,VALID,0.100563,VALID,23.2736,VALID,4,VALID,0.325,
2011-04-28, 03:08:04,VALID,1001.86,VALID,0,INVALID,163.792,VALID,0,VALID,23.2931,VALID,4,VALID,0.119141,
2011-04-28, 03:09:04,VALID,1001.83,VALID,0,INVALID,163.807,VALID,0.100563,VALID,23.2524,VALID,4,VALID,0.0320312,
2011-04-28, 03:10:04,VALID,1001.82,VALID,0,INVALID,163.784,VALID,0.100563,VALID,23.2931,VALID,4,VALID,0,
2011-04-28, 03:11:04,VALID,1001.83,VALID,0,INVALID,163.777,VALID,0.100563,VALID,23.2736,VALID,4,VALID,0.0015625,
2011-04-28, 03:12:04,VALID,1001.82,VALID,0,INVALID,163.792,VALID,0.100563,VALID,23.2524,VALID,4,VALID,0.0496094,
2011-04-28, 03:13:04,VALID,1001.83,VALID,0,INVALID,163.8,VALID,0.100563,VALID,23.2329,VALID,4,VALID,0.173047,
2011-04-28, 03:14:04,VALID,1001.84,VALID,0,INVALID,163.769,VALID,0,VALID,23.2541,VALID,4,VALID,0.257422,
2011-04-28, 03:15:04,VALID,1001.85,VALID,0,INVALID,163.8,VALID,0,VALID,23.2736,VALID,4,VALID,0.01875,
2011-04-28, 03:16:04,VALID,1001.89,VALID,0,INVALID,163.792,VALID,0,VALID,23.2966,VALID,4,VALID,0,
2011-04-28, 03:17:04,VALID,1001.9,VALID,0,INVALID,163.792,VALID,0,VALID,23.2736,VALID,4,VALID,0,
2011-04-28, 03:18:04,VALID,1001.92,VALID,0,INVALID,163.807,VALID,0,VALID,23.2524,VALID,4,VALID,0,
2011-04-28, 03:19:04,VALID,1001.9,VALID,0,INVALID,163.8,VALID,0,VALID,23.2736,VALID,4,VALID,0,
2011-04-28, 03:20:04,VALID,1001.93,VALID,0,INVALID,163.777,VALID,0,VALID,23.2754,VALID,4,VALID,0,
2011-04-28, 03:21:04,VALID,1001.95,VALID,0,INVALID,163.8,VALID,0,VALID,23.3143,VALID,4,VALID,0,
2011-04-28, 03:22:04,VALID,1001.91,VALID,0,INVALID,163.792,VALID,0,VALID,23.2736,VALID,4,VALID,0,
2011-04-28, 03:23:04,VALID,1001.9,VALID,0,INVALID,163.784,VALID,0,VALID,23.2736,VALID,4,VALID,0,
2011-04-28, 03:24:04,VALID,1001.88,VALID,0,INVALID,163.792,VALID,0,VALID,23.2736,VALID,4,VALID,0,
2011-04-28, 03:25:04,VALID,1001.9,VALID,0,INVALID,163.792,VALID,0,VALID,23.2524,VALID,4,VALID,0,
2011-04-28, 03:26:04,VALID,1001.91,VALID,0,INVALID,163.815,VALID,0,VALID,23.2541,VALID,14,VALID,0,
2011-04-28, 03:27:04,VALID,1001.94,VALID,0,INVALID,163.792,VALID,0,VALID,23.2736,VALID,14,VALID,0,
2011-04-28, 03:28:04,VALID,1001.92,VALID,0,INVALID,163.792,VALID,0,VALID,23.2931,VALID,14,VALID,0,
2011-04-28, 03:29:04,VALID,1001.97,VALID,0,INVALID,163.784,VALID,0,VALID,23.3337,VALID,14,VALID,0,
2011-04-28, 03:30:04,VALID,1001.98,VALID,0,INVALID,163.807,VALID,0,VALID,23.332,VALID,14,VALID,0,
2011-04-28, 03:31:04,VALID,1001.96,VALID,0,INVALID,163.762,VALID,0,VALID,23.3337,VALID,14,VALID,0,
2011-04-28, 03:32:04,VALID,1001.96,VALID,0,INVALID,163.792,VALID,0,VALID,23.2931,VALID,52,VALID,0.348437,
2011-04-28, 03:33:04,VALID,1001.92,VALID,0,INVALID,163.8,VALID,0,VALID,23.3143,VALID,52,VALID,0.0636719,
2011-04-28, 03:34:04,VALID,1001.93,VALID,0,INVALID,163.792,VALID,0,VALID,23.332,VALID,62,VALID,0.303125,
2011-04-28, 03:35:04,VALID,1001.89,VALID,0,INVALID,163.784,VALID,0,VALID,23.3143,VALID,99,VALID,0.255469,
2011-04-28, 03:36:04,VALID,1001.83,VALID,0,INVALID,163.792,VALID,0,VALID,23.2948,VALID,99,VALID,0.289453,
2011-04-28, 03:37:04,VALID,1001.83,VALID,0,INVALID,163.8,VALID,0,VALID,23.2541,VALID,99,VALID,0.235547,
2011-04-28, 03:38:04,VALID,1001.8,VALID,0,INVALID,163.784,VALID,0,VALID,23.2541,VALID,99,VALID,0.208594,
2011-04-28, 03:39:04,VALID,1001.79,VALID,0,INVALID,163.784,VALID,0,VALID,23.2347,VALID,105,VALID,0.767969,
2011-04-28, 03:40:04,VALID,1001.79,VALID,0,INVALID,163.777,VALID,0,VALID,23.2364,VALID,100,VALID,0.875781,